• In Hungary
  • List of Countries
  • For 7 days
  • Water Temperature
  • Satellite Maps
  • Weather Map
  • News
  • Weather Widgets
  • user-avatar
    Login

    Hourly Weather Fagernes

    Today, 17 July, Tuesday

    Time Temperature Precipitation Wind Pressure Humidity
    00:00 +15°C° 0 mm 1 mps 727 mmHg 76%
    01:00 +13°C° 0 mm 0 mps 727 mmHg 79%
    02:00 +13°C° 0 mm 0 mps 727 mmHg 79%
    03:00 +14°C° 0 mm 1 mps 727 mmHg 79%
    04:00 +14°C° 0 mm 1 mps 726 mmHg 79%
    05:00 +16°C° 0 mm 1 mps 727 mmHg 71%
    06:00 +19°C° 0 mm 1 mps 727 mmHg 62%
    07:00 +22°C° 0 mm 1 mps 727 mmHg 53%
    08:00 +23°C° 0.1 mm 1 mps 727 mmHg 51%
    09:00 +24°C° 0.1 mm 2 mps 727 mmHg 49%
    10:00 +26°C° 0.1 mm 3 mps 727 mmHg 48%
    11:00 +25°C° 0.8 mm 3 mps 727 mmHg 54%
    12:00 +24°C° 0.8 mm 2 mps 727 mmHg 60%
    13:00 +24°C° 0.8 mm 2 mps 727 mmHg 66%
    14:00 +24°C° 1 mm 2 mps 726 mmHg 66%
    15:00 +24°C° 1 mm 2 mps 726 mmHg 65%
    16:00 +24°C° 1 mm 2 mps 726 mmHg 64%
    17:00 +24°C° 0.7 mm 2 mps 726 mmHg 65%
    18:00 +24°C° 0.7 mm 2 mps 726 mmHg 67%
    19:00 +23°C° 0.7 mm 2 mps 726 mmHg 69%
    20:00 +22°C° 0.1 mm 1 mps 726 mmHg 72%
    21:00 +20°C° 0.1 mm 1 mps 726 mmHg 75%
    22:00 +18°C° 0.1 mm 1 mps 726 mmHg 78%
    23:00 +18°C° 0 mm 1 mps 726 mmHg 79%

    Tomorrow, 18 July, Wednesday

    Time Temperature Precipitation Wind Pressure Humidity
    00:00 +18°C° 0 mm 1 mps 726 mmHg 79%
    01:00 +15°C° 0 mm 0 mps 726 mmHg 79%
    02:00 +16°C° 0.2 mm 1 mps 726 mmHg 82%
    03:00 +16°C° 0.2 mm 1 mps 726 mmHg 85%
    04:00 +16°C° 0.2 mm 1 mps 726 mmHg 88%
    05:00 +16°C° 1.1 mm 1 mps 726 mmHg 89%
    06:00 +16°C° 1.1 mm 1 mps 726 mmHg 91%
    07:00 +18°C° 1.1 mm 1 mps 726 mmHg 93%
    08:00 +18°C° 1.2 mm 1 mps 726 mmHg 92%
    09:00 +19°C° 1.2 mm 1 mps 726 mmHg 91%
    10:00 +19°C° 1.2 mm 1 mps 726 mmHg 89%
    11:00 +19°C° 1 mm 1 mps 726 mmHg 88%
    12:00 +20°C° 1 mm 1 mps 726 mmHg 87%
    13:00 +20°C° 1 mm 1 mps 726 mmHg 86%
    14:00 +20°C° 0.5 mm 2 mps 726 mmHg 80%
    15:00 +21°C° 0.5 mm 2 mps 726 mmHg 75%
    16:00 +21°C° 0.5 mm 2 mps 726 mmHg 70%
    17:00 +21°C° 0.4 mm 2 mps 726 mmHg 71%
    18:00 +21°C° 0.4 mm 2 mps 726 mmHg 71%
    19:00 +21°C° 0.4 mm 2 mps 726 mmHg 72%
    20:00 +20°C° 0.1 mm 1 mps 726 mmHg 78%
    21:00 +18°C° 0.1 mm 1 mps 726 mmHg 84%
    22:00 +15°C° 0.1 mm 1 mps 726 mmHg 91%
    23:00 +15°C° 0 mm 1 mps 726 mmHg 91%

    Day after tomorrow, 19 July, Thursday

    Time Temperature Precipitation Wind Pressure Humidity
    00:00 +14°C° 0 mm 1 mps 726 mmHg 92%
    01:00 +14°C° 0 mm 1 mps 726 mmHg 93%
    02:00 +13°C° 0 mm 1 mps 726 mmHg 93%
    03:00 +13°C° 0 mm 1 mps 726 mmHg 93%
    04:00 +13°C° 0 mm 1 mps 726 mmHg 93%
    05:00 +14°C° 0 mm 1 mps 726 mmHg 88%
    06:00 +16°C° 0 mm 1 mps 727 mmHg 83%
    07:00 +19°C° 0 mm 1 mps 727 mmHg 78%
    08:00 +20°C° 0 mm 1 mps 727 mmHg 72%
    09:00 +22°C° 0 mm 1 mps 727 mmHg 66%
    10:00 +24°C° 0 mm 1 mps 727 mmHg 59%
    11:00 +24°C° 0.1 mm 1 mps 727 mmHg 54%
    12:00 +25°C° 0.1 mm 1 mps 726 mmHg 49%
    13:00 +26°C° 0.1 mm 2 mps 726 mmHg 44%
    14:00 +26°C° 0 mm 2 mps 726 mmHg 44%
    15:00 +26°C° 0 mm 2 mps 726 mmHg 45%
    16:00 +26°C° 0 mm 1 mps 726 mmHg 45%
    17:00 +25°C° 0 mm 1 mps 725 mmHg 48%
    18:00 +24°C° 0 mm 1 mps 725 mmHg 51%
    19:00 +24°C° 0 mm 1 mps 725 mmHg 54%
    20:00 +22°C° 0 mm 1 mps 725 mmHg 61%
    21:00 +19°C° 0 mm 1 mps 725 mmHg 68%
    22:00 +16°C° 0 mm 1 mps 725 mmHg 75%
    23:00 +15°C° 0 mm 1 mps 725 mmHg 78%

    20 July, Friday

    Time Temperature Precipitation Wind Pressure Humidity
    00:00 +13°C° 0 mm 0 mps 725 mmHg 80%
    01:00 +12°C° 0 mm 0 mps 724 mmHg 83%
    02:00 +11°C° 0 mm 0 mps 724 mmHg 85%
    03:00 +11°C° 0 mm 0 mps 724 mmHg 86%
    04:00 +10°C° 0 mm 0 mps 724 mmHg 87%
    05:00 +13°C° 0 mm 0 mps 724 mmHg 79%
    06:00 +15°C° 0 mm 0 mps 724 mmHg 71%
    07:00 +17°C° 0 mm 0 mps 724 mmHg 63%
    08:00 +20°C° 0 mm 1 mps 724 mmHg 56%
    09:00 +22°C° 0 mm 1 mps 724 mmHg 49%
    10:00 +23°C° 0 mm 2 mps 724 mmHg 42%
    11:00 +24°C° 0 mm 2 mps 723 mmHg 40%
    12:00 +24°C° 0 mm 2 mps 723 mmHg 39%
    13:00 +25°C° 0 mm 2 mps 723 mmHg 37%
    14:00 +25°C° 0 mm 2 mps 723 mmHg 38%
    15:00 +25°C° 0 mm 2 mps 722 mmHg 40%
    16:00 +25°C° 0 mm 2 mps 722 mmHg 41%
    17:00 +24°C° 0 mm 2 mps 722 mmHg 45%
    18:00 +24°C° 0 mm 2 mps 722 mmHg 49%
    19:00 +23°C° 0 mm 1 mps 721 mmHg 53%
    20:00 +21°C° 0 mm 1 mps 721 mmHg 61%
    21:00 +19°C° 0 mm 1 mps 721 mmHg 69%
    22:00 +15°C° 0 mm 1 mps 721 mmHg 77%
    23:00 +15°C° 0 mm 1 mps 721 mmHg 79%

    21 July, Saturday

    Time Temperature Precipitation Wind Pressure Humidity
    00:00 +14°C° 0 mm 1 mps 721 mmHg 82%
    01:00 +14°C° 0 mm 1 mps 720 mmHg 84%
    02:00 +13°C° 0 mm 1 mps 720 mmHg 85%
    03:00 +13°C° 0 mm 1 mps 720 mmHg 85%
    04:00 +13°C° 0 mm 1 mps 720 mmHg 86%
    05:00 +14°C° 0 mm 1 mps 720 mmHg 80%
    06:00 +16°C° 0 mm 1 mps 720 mmHg 75%
    07:00 +18°C° 0 mm 1 mps 720 mmHg 69%
    08:00 +20°C° 0.1 mm 1 mps 720 mmHg 66%
    09:00 +21°C° 0.1 mm 1 mps 719 mmHg 62%
    10:00 +22°C° 0.1 mm 1 mps 719 mmHg 59%
    11:00 +22°C° 0.5 mm 1 mps 719 mmHg 59%
    12:00 +23°C° 0.5 mm 1 mps 719 mmHg 59%
    13:00 +23°C° 0.5 mm 1 mps 719 mmHg 58%
    14:00 +23°C° 0.5 mm 1 mps 718 mmHg 59%
    15:00 +23°C° 0.5 mm 1 mps 718 mmHg 60%
    16:00 +23°C° 0.5 mm 1 mps 718 mmHg 61%
    17:00 +22°C° 0.4 mm 1 mps 718 mmHg 64%
    18:00 +20°C° 0.4 mm 2 mps 718 mmHg 67%
    19:00 +20°C° 0.4 mm 2 mps 718 mmHg 70%
    20:00 +18°C° 0.2 mm 2 mps 718 mmHg 76%
    21:00 +17°C° 0.2 mm 2 mps 718 mmHg 81%
    22:00 +15°C° 0.2 mm 2 mps 719 mmHg 87%
    23:00 +15°C° 0.1 mm 2 mps 719 mmHg 88%

    22 July, Sunday

    Time Temperature Precipitation Wind Pressure Humidity
    00:00 +15°C° 0.1 mm 2 mps 719 mmHg 90%
    01:00 +14°C° 0.1 mm 2 mps 719 mmHg 91%
    02:00 +14°C° 0.1 mm 2 mps 719 mmHg 92%
    03:00 +14°C° 0.1 mm 2 mps 719 mmHg 92%
    04:00 +13°C° 0.1 mm 2 mps 719 mmHg 92%
    05:00 +14°C° 0 mm 2 mps 720 mmHg 88%
    06:00 +15°C° 0 mm 2 mps 720 mmHg 83%
    07:00 +17°C° 0 mm 2 mps 720 mmHg 79%
    08:00 +19°C° 0 mm 1 mps 720 mmHg 72%
    09:00 +21°C° 0 mm 1 mps 720 mmHg 65%
    10:00 +22°C° 0 mm 1 mps 721 mmHg 58%
    11:00 +23°C° 0.2 mm 1 mps 721 mmHg 56%
    12:00 +24°C° 0.2 mm 1 mps 721 mmHg 54%
    13:00 +24°C° 0.2 mm 1 mps 721 mmHg 52%
    14:00 +24°C° 0.1 mm 1 mps 721 mmHg 50%
    15:00 +25°C° 0.1 mm 2 mps 721 mmHg 48%
    16:00 +25°C° 0.1 mm 2 mps 721 mmHg 45%
    17:00 +24°C° 0 mm 2 mps 721 mmHg 48%
    18:00 +24°C° 0 mm 2 mps 721 mmHg 51%
    19:00 +23°C° 0 mm 2 mps 721 mmHg 54%
    20:00 +20°C° 0 mm 2 mps 721 mmHg 60%
    21:00 +18°C° 0 mm 2 mps 722 mmHg 66%
    22:00 +16°C° 0 mm 2 mps 722 mmHg 72%
    23:00 +15°C° 0 mm 2 mps 722 mmHg 74%
    Show more